Tracking 23757 objects as of 25-Oct-2021
HD Live streaming from Space Station
objects crossing your sky now

ARIANE 5 DEB (SYLDA)

Track ARIANE 5 DEB (SYLDA) now!
10-day predictions


NORAD ID: 29164
Int'l Code: 2006-020C
Perigee: 277.5 km
Apogee: 11,580.7 km
Inclination: 6.8 °
Period: 226.3 minutes
Semi major axis: 12300 km
RCS: 17.7393 m2 (large)
Launch date: May 27, 2006
Source: France (FR)
Launch site: FRENCH GUIANA (FRGUI)

Note: This is SATELLITE DEBRIS
aabbcc
Your satellite tracking list
Your tracking list is empty




NASA's NSSDC Master Catalog

Two Line Element Set (TLE):
1 29164U 06020C   21297.16647767  .00054875  00000-0  42025-2 0  9999
2 29164   6.7811 202.5151 4594768  60.7074 337.4252  6.36416394262996
Source of the keplerian elements: AFSPC